DAL1649 KFZY-KBOS

Flight info

Callsign DAL1649
Flight time N/A
Altitude 19000
Route SAEZE PONCT JFUND2
Aircraft DC6/M-SDE1FGHIRWXY/S

Departure

Time 2026-05-04 19:54
Airport Oswego County Airport (KFZY)

Arrival

Time N/A
Airport Boston Logan International Airport (KBOS)
Time Latitude Longitude Altitude Speed Heading
2026-05-04 19:13 43.34969 -76.39203 469 ft 0 kts 49°
2026-05-04 19:43 43.34970 -76.39203 469 ft 1 kts 49°
2026-05-04 19:44 43.35024 -76.39165 469 ft 17 kts 13°
2026-05-04 19:44 43.35080 -76.39113 468 ft 11 kts 96°
2026-05-04 19:44 43.35071 -76.38988 470 ft 15 kts 96°
2026-05-04 19:44 43.35018 -76.38884 470 ft 15 kts 141°
2026-05-04 19:45 43.34921 -76.38785 471 ft 17 kts 145°
2026-05-04 19:45 43.34827 -76.38696 473 ft 13 kts 126°
2026-05-04 19:45 43.34779 -76.38577 475 ft 19 kts 139°
2026-05-04 19:45 43.34653 -76.38412 475 ft 31 kts 137°
2026-05-04 19:46 43.34534 -76.38251 480 ft 4 kts 99°
2026-05-04 19:46 43.34543 -76.38233 480 ft 7 kts 47°
2026-05-04 19:46 43.34568 -76.38196 479 ft 1 kts 46°
2026-05-04 19:46 43.34568 -76.38195 479 ft 0 kts 46°
2026-05-04 19:51 43.34577 -76.38183 483 ft 5 kts 46°
2026-05-04 19:51 43.34612 -76.38163 475 ft 8 kts 345°
2026-05-04 19:51 43.34705 -76.38278 480 ft 36 kts 316°
2026-05-04 19:52 43.35012 -76.38669 473 ft 83 kts 317°
2026-05-04 19:52 43.35525 -76.39325 468 ft 115 kts 319°
2026-05-04 19:52 43.36123 -76.40075 586 ft 120 kts 310°
2026-05-04 19:52 43.36722 -76.40847 855 ft 111 kts 309°
2026-05-04 19:53 43.37307 -76.41604 747 ft 124 kts 314°
2026-05-04 19:53 43.37939 -76.42489 576 ft 128 kts 304°
2026-05-04 19:53 43.38495 -76.43398 790 ft 119 kts 297°
2026-05-04 19:53 43.38951 -76.44302 1015 ft 110 kts 289°
2026-05-04 19:54 43.39334 -76.45195 1165 ft 106 kts 285°
2026-05-04 19:54 43.39869 -76.45895 1307 ft 109 kts 324°
2026-05-04 19:54 43.40639 -76.45950 1311 ft 120 kts
2026-05-04 19:54 43.41342 -76.45309 1263 ft 124 kts 42°
2026-05-04 19:55 43.41667 -76.44222 1248 ft 123 kts 81°
2026-05-04 19:55 43.41480 -76.43142 1308 ft 114 kts 123°
2026-05-04 19:55 43.41176 -76.42171 1413 ft 108 kts 111°
2026-05-04 19:55 43.40942 -76.41152 1315 ft 114 kts 106°
2026-05-04 19:56 43.40756 -76.40082 1197 ft 122 kts 102°
2026-05-04 19:56 43.40573 -76.38958 1287 ft 115 kts 102°
2026-05-04 19:56 43.40448 -76.37860 1277 ft 118 kts 96°
2026-05-04 19:56 43.40546 -76.36829 424 ft 26 kts 339°
2026-05-04 19:57 43.40563 -76.36820 411 ft 0 kts 344°